Roland Digital Piano Keyboard Model FP-1 Lot 1326-I

no image
Auction closed for price: $460.00
Auction ID:
#27146
Location:
Posted on:
10th of June 2019 at 5:07 PM
Watch List:
Item Specifics
BIDDING TIP: Make your first bid your top bid. The price will only increase as other bids are submitted.
Description

Please share our site with your Facebook friends!

Welcome to our Roseville downsize.  This location offers brand name contemporary furnishings, mission oak and Royal Doulton China.  To view all items from this location, enter 1326 into the search box.

Attention Buyers! You will receive address for pick up after you have responded to our online correspondence. IF YOU DO NOT RESPOND WITHIN 24 HOURS, WE CAN NOT GUARANTEE YOUR ITEM WILL BE AVAILABLE FOR PURCHASE.

*******BUYERS MUST PROVIDE ALL MOVING HELP*********

WINNING BIDDER AGREES TO PAY A 13% BUYERS PREMIUM.

Type of Residence: Secured Condo

PICK-UP TIME: THURSDAY, JUNE 20TH FROM 1 – 3 PM

Location: Roseville, MN

Pets: No

Smoking: No

Item Details:

This auction is for a Roland Digital Piano model FP-1.   Features:

  • headphones
  • hammer action keyboard
  • MDI MIDI connectors
  • Bench
  • Cover
  • Damper Pedal

In very good working condition.

keyboards

Posted Bids
UsernameBid AmountDate MadeWinner
ahnnapeterson$460.0019-Jun-2019 10:11:56Yes
Ctorgerson$450.0019-Jun-2019 10:11:56 
ahnnapeterson$435.0019-Jun-2019 10:09:07 
Ctorgerson$425.0019-Jun-2019 10:08:28 
ahnnapeterson$415.0019-Jun-2019 10:08:27 
ahnnapeterson$410.0019-Jun-2019 10:07:21 
Ctorgerson$400.0019-Jun-2019 10:07:21 
Ctorgerson$385.0019-Jun-2019 10:07:10 
ahnnapeterson$375.0019-Jun-2019 10:07:10 
Ctorgerson$361.0019-Jun-2019 10:05:48 
ahnnapeterson$351.0019-Jun-2019 10:05:01 
Ctorgerson$350.0019-Jun-2019 10:05:01 
Ctorgerson$311.0019-Jun-2019 10:03:54 
ahnnapeterson$301.0019-Jun-2019 10:03:54 
Ctorgerson$283.0019-Jun-2019 10:03:33 
ahnnapeterson$273.0019-Jun-2019 10:03:33 
Ctorgerson$262.0019-Jun-2019 10:02:43 
ahnnapeterson$252.0019-Jun-2019 10:02:43 
Ctorgerson$241.0019-Jun-2019 10:02:23 
ahnnapeterson$231.0019-Jun-2019 10:02:23 
Ctorgerson$220.0019-Jun-2019 10:02:06 
ahnnapeterson$210.0019-Jun-2019 10:02:05 
Ctorgerson$192.0019-Jun-2019 10:01:24 
ahnnapeterson$182.0019-Jun-2019 10:01:23 
Ctorgerson$171.0019-Jun-2019 08:59:21 
ahnnapeterson$161.0019-Jun-2019 08:59:21 
ahnnapeterson$160.0019-Jun-2019 08:57:54 
Ctorgerson$150.0019-Jun-2019 08:57:32 
ahnnapeterson$146.0019-Jun-2019 08:57:32 
Ctorgerson$135.0019-Jun-2019 07:39:39 
ahnnapeterson$125.0019-Jun-2019 07:39:39 
ahnnapeterson$122.0013-Jun-2019 16:13:17 
astanki$112.0013-Jun-2019 16:12:56 
ahnnapeterson$110.0013-Jun-2019 16:12:55 
astanki$93.0013-Jun-2019 16:12:17 
ahnnapeterson$83.0013-Jun-2019 16:12:16 
astanki$72.0013-Jun-2019 08:13:14 
ahnnapeterson$62.0013-Jun-2019 08:13:14 
ahnnapeterson$61.0013-Jun-2019 01:46:43 
astanki$51.0013-Jun-2019 01:45:29 
ahnnapeterson$45.0013-Jun-2019 01:45:29 
astanki$30.0012-Jun-2019 13:38:45 
Image Gallery
No images.
Map Location